Regional Weather Roundup
Issued by NWS

Home | Current Version | Previous Version | Graphics & Text | Print | Product List | Glossary On
Versions: 1 2 3 4 5 6 7 8 9 10 11 12 13 14 15 16 17 18 19 20 21 22 23 24 25 26 27 28 29 30 31 32 33 34 35 36 37 38 39 40 41 42 43 44 45 46 47 48 49 50
000
ASUS43 KOAX 291702
RWRNE

WEATHER ROUNDUP FOR NEBRASKA
NATIONAL WEATHER SERVICE OMAHA NE
1200 PM CDT THU SEP 29 2016

NOTES: SATELLITE DATA IS BEING USED TO AUGMENT CLOUD COVER ABOVE
       12000 FEET.
       "FAIR" INDICATES FEW OR NO CLOUDS BELOW 12,000 FEET WITH NO
       SIGNIFICANT WEATHER AND/OR OBSTRUCTIONS TO VISIBILITY.

  * THESE STATIONS DO NOT REPORT WEATHER SUCH AS RAIN...SNOW OR FOG.

NEZ001>004-019>022-054>056-291800-
NEBRASKA PANHANDLE

CITY           SKY/WX    TMP DP  RH WIND       PRES   REMARKS
SCOTTSBLUFF    SUNNY     66  45  46 E14       30.33F
ALLIANCE       SUNNY     68  43  40 S14       30.35F
CHADRON        SUNNY     72  44  36 S13       30.30F
KIMBALL        SUNNY     66  46  47 SE15      30.37F
SIDNEY         SUNNY     69  44  40 S17       30.38F
$$

NEZ057>060-069>072-079>082-291800-
SOUTHWEST NEBRASKA

CITY           SKY/WX    TMP DP  RH WIND       PRES   REMARKS
NORTH PLATTE   SUNNY     64  42  44 S8        30.42F
IMPERIAL       SUNNY     66  42  41 SE15G22   30.40F
LEXINGTON      SUNNY     63  45  52 SE7       30.44F
MCCOOK         SUNNY     63  43  48 SE10      30.43F
OGALLALA       SUNNY     70  40  34 S8        30.39F
$$

NEZ005>010-023>029-035>040-094-291800-
NORTH CENTRAL NEBRASKA

CITY           SKY/WX    TMP DP  RH WIND       PRES   REMARKS
VALENTINE      SUNNY     65  42  43 SE14      30.40F
AINSWORTH      SUNNY     64  46  53 S12       30.42F
BROKEN BOW     SUNNY     60  44  55 VRB6      30.44F
O`NEILL        SUNNY     62  45  54 S3        30.45F
ORD            SUNNY     61  44  53 CALM      30.44F
THEDFORD       SUNNY     66  44  44 S12       30.42F
$$

NEZ041-046>049-061>064-073>077-083>087-291800-
SOUTH CENTRAL NEBRASKA

CITY           SKY/WX    TMP DP  RH WIND       PRES   REMARKS
GRAND ISLAND   MOSUNNY   60  45  57 VRB3      30.47F
AURORA         PTSUNNY   61  46  59 N3        30.46S
HASTINGS       MOSUNNY   59  45  59 S3        30.47F
HEBRON         PTSUNNY   63  48  58 NW5       30.44F
HOLDREGE       SUNNY     61  42  50 CALM      30.45F
KEARNEY *      SUNNY     61  45  55 CALM      30.45F
YORK           MOSUNNY   59  48  67 CALM      30.46F
$$

NEZ011>018-030>034-042>045-291800-
NORTHEAST NEBRASKA

CITY           SKY/WX    TMP DP  RH WIND       PRES   REMARKS
NORFOLK        SUNNY     62  45  53 CALM      30.46F
ALBION         PTSUNNY   60  46  59 CALM      30.46F
BLAIR          MOSUNNY   63  53  69 NW7       30.44F
FREMONT        MOSUNNY   61  51  67 CALM      30.45F
TEKAMAH        SUNNY     64  51  62 N6        30.45F
WAYNE          SUNNY     62  51  67 CALM      30.46F
$$

NEZ050>053-065>068-078-088>093-291800-
SOUTHEAST NEBRASKA

CITY           SKY/WX    TMP DP  RH WIND       PRES   REMARKS
LINCOLN        MOSUNNY   65  52  62 NE6       30.45F
OMAHA EPPLEY   MOSUNNY   65  52  62 NW10      30.44F
BEATRICE       MOSUNNY   64  51  61 NE5       30.43F
FALLS CITY     SUNNY     66  50  56 NE9       30.40F
NEBRASKA CITY  SUNNY     64  46  52 N5        30.43F
PLATTSMOUTH    SUNNY     64  48  57 NW7       30.43F
$$

NEZ044-045-051>053-067-291800-
OMAHA AREA

CITY           SKY/WX    TMP DP  RH WIND       PRES   REMARKS
OMAHA EPPLEY   MOSUNNY   65  52  62 NW10      30.44F
BLAIR          MOSUNNY   63  53  69 NW7       30.44F
FREMONT        MOSUNNY   61  51  67 CALM      30.45F
MILLARD        MOSUNNY   63  53  67 NW3       30.44F
OFFUTT AFB     MOSUNNY   64  52  66 NW7       30.43F
PLATTSMOUTH    SUNNY     64  48  57 NW7       30.43F
WAHOO          FAIR      63  50  63 CALM      30.45F
$$




USA.gov is the U.S. government's official web portal to all federal, state and local government web resources and services.